Weather Roundup
Issued by NWS Corpus Christi, TX

Home | Current Version | Previous Version | Text Only | Print | Product List | Glossary On
Versions: 1 2 3 4 5 6 7 8 9 10 11 12 13 14 15 16 17 18 19 20 21 22 23 24 25 26 27 28 29 30 31 32 33 34 35 36 37 38 39 40 41 42 43 44 45 46 47 48 49 50
000
ASUS44 KCRP 282010
HRRCRP

SOUTH TEXAS REGIONAL WEATHER ROUNDUP
NATIONAL WEATHER SERVICE CORPUS CHRISTI TX
300 PM CDT TUE JUL 28 2015


TXZ229>244-282100-
...CORPUS CHRISTI AREA OBSERVATIONS...

CITY           SKY/WX    TMP DP  RH WIND       PRES   REMARKS
CORPUS CHRISTI MOSUNNY   95  75  52 SE26G33   29.92F HX 107
NAS CORPUS CHR PTSUNNY   89  78  70 SE23G30   29.94F HX 103
ROCKPORT       PTSUNNY   91  78  65 SE18G26   29.94S HX 106
KINGSVILLE NAS MOSUNNY   96  80  59 SE20G28   29.91F HX 116
ALICE          SUNNY     98  76  49 SE24      29.89F HX 112
FALFURRIAS     SUNNY    100  65  31 S21G28    29.88F HX 103
$$

...VICTORIA AREA OBSERVATIONS...

CITY           SKY/WX    TMP DP  RH WIND       PRES   REMARKS
VICTORIA       SUNNY     97  66  36 S16G25    29.94F HX 100
BEEVILLE       FAIR      95  78  57 SE18G25   29.92F HX 110
PLEASANTON     SUNNY     98  65  34 E6G20     29.91F HX 101
SAN ANTONIO    MOSUNNY   94  68  42 VRB6      29.95F HX  98
$$

...LAREDO AREA OBSERVATIONS...

CITY           SKY/WX    TMP DP  RH WIND       PRES   REMARKS
LAREDO         SUNNY    102  65  29 SE10      29.88F HX 105
COTULLA        MOSUNNY   99  67  35 SE9G18    29.89F HX 103
DEL RIO        SUNNY     96  71  44 SE12      29.89F HX 103
MCALLEN        SUNNY    101  69  35 S18G30    29.90S HX 107
HEBBRONVILLE     N/A    100  60  27 SE15G22   29.90F HX 100
$$

...OTHER TEXAS OBSERVATIONS...

CITY           SKY/WX    TMP DP  RH WIND       PRES   REMARKS
BROWNSVILLE    SUNNY     94  74  52 SE22G30   29.93F HX 104
HOUSTON        MOSUNNY   98  63  31 SE8       29.95F HX 100
COL. STATION   SUNNY     97  68  38 SE14G22   29.95F HX 102
AUSTIN         MOSUNNY   97  68  38 S13       29.93F HX 102
WACO           SUNNY     97  67  37 S16G23    29.94F HX 101
FORT WORTH     MOSUNNY   98  64  32 S15G23    29.93F HX 100
WICHITA FALLS  SUNNY     97  68  38 SE15      29.91F HX 102
LUBBOCK        MOSUNNY   97  62  31 S16       29.99F HX  98
EL PASO        MOSUNNY   95  52  23 S8        30.01F HX  92
$$

...MARINE OBSERVATIONS...

STATION/POSITION TIME  SKY/WX   TEMP    WIND        PRES    VSBY  WAVE   SWELL
                                AIR SEA DIR/SP/G                  HT/PER HT/PER
                 (UTC)          (F)     (DEG/KT/KT) (MB)    (MI)  (FT/S) (FT/S)
PORT ARANSAS     2000            83 85  140/ 13/ 14 1014.9F
BUOY 90 E PORT A 1950            86 86  160/ 12/ 14 1015.2F         3/ 6   2/ 8
BUOY 45 SE BAFFI 1950            84 84  160/ 16/ 17 1013.9          3/ 6
BUOY 200 E PT IS 1950            86 87  160/ 10/ 14 1015.7F         2/ 5
BUOY 15 E GALVES 1950            86 88  160/  6/  8 1015.1F         2/ 6   2/ 6
$$


USA.gov is the U.S. government's official web portal to all federal, state and local government web resources and services.